STARLINK-3108

decayed
NORAD ID: 49439 Int'l Des: 2021-104 Owner: SPXS Country: US Constellation: starlink
LEOCIRCULAR

关于 STARLINK-3108

正在加载描述...

高度历史

Altitude vs Time

uPlot chart will show altitude changes over time

两行轨道根数

1 49439U 21104AH 24137.58989843 .05153346 11930-4 19014-2 0 9990
2 49439 53.1938 243.1524 0007023 311.6334 103.7020 16.23801185140872
Epoch: May 16, 2024 • Age: 11744 hours

当前状态

Position data unavailable
发射日期 Nov 13, 2021
运行时间 3.8 years
衰减日期 May 16, 2024
类型 internet

技术详情

分类 Payload
质量 290.00 kg
干质量 270.00 kg
总质量 290.00 kg
长度 0.20 m
直径 2.80 m
跨度 9.00 m
形状 Box + pan
制造商 SPXS
平台类型 Starlink
阶段状态 Unknown Transfer Status
所有者/国家 SPXS/US

大型星座

Loading constellations...